• In Belarus
  • List of Countries
  • For 7 days
  • Water Temperature
  • Weather Map
  • Weather Widgets
  • user-avatar
    Login

    Hourly Weather Syanno

    Today, 29 February, Saturday

    Time Temperature Precipitation Wind Pressure Humidity
    00:00 -3°C° 0 mm 4 mps 739 mmHg 83%
    01:00 -4°C° 0 mm 4 mps 740 mmHg 83%
    02:00 -4°C° 0 mm 4 mps 740 mmHg 83%
    03:00 -4°C° 0 mm 4 mps 740 mmHg 83%
    04:00 -4°C° 0 mm 3 mps 740 mmHg 83%
    05:00 -4°C° 0 mm 3 mps 740 mmHg 83%
    06:00 -3°C° 0 mm 4 mps 740 mmHg 83%
    07:00 -3°C° 0 mm 4 mps 740 mmHg 83%
    08:00 -3°C° 0 mm 4 mps 741 mmHg 83%
    09:00 -2°C° 0.1 mm 4 mps 741 mmHg 81%
    10:00 -2°C° 0.1 mm 4 mps 741 mmHg 78%
    11:00 -1°C° 0.1 mm 4 mps 741 mmHg 75%
    12:00 -1°C° 0 mm 4 mps 741 mmHg 73%
    13:00 0°C° 0 mm 4 mps 741 mmHg 71%
    14:00 0°C° 0 mm 4 mps 741 mmHg 68%
    15:00 0°C° 0 mm 4 mps 742 mmHg 72%
    16:00 0°C° 0 mm 3 mps 742 mmHg 75%
    17:00 +1°C° 0 mm 2 mps 742 mmHg 78%
    18:00 -1°C° 0 mm 3 mps 742 mmHg 80%
    19:00 -1°C° 0 mm 3 mps 742 mmHg 82%
    20:00 -2°C° 0 mm 3 mps 742 mmHg 84%
    21:00 -2°C° 0 mm 3 mps 742 mmHg 85%
    22:00 -3°C° 0 mm 4 mps 742 mmHg 86%
    23:00 -3°C° 0 mm 4 mps 742 mmHg 87%

    Tomorrow, 1 March, Sunday

    Time Temperature Precipitation Wind Pressure Humidity
    00:00 -4°C° 0 mm 5 mps 742 mmHg 86%
    01:00 -2°C° 0 mm 5 mps 742 mmHg 86%
    02:00 -2°C° 0 mm 5 mps 741 mmHg 85%
    03:00 -3°C° 0 mm 6 mps 741 mmHg 82%
    04:00 -3°C° 0 mm 6 mps 741 mmHg 80%
    05:00 -2°C° 0 mm 6 mps 740 mmHg 77%
    06:00 -2°C° 0 mm 7 mps 740 mmHg 80%
    07:00 -2°C° 0 mm 7 mps 740 mmHg 83%
    08:00 -2°C° 0 mm 8 mps 740 mmHg 86%
    09:00 -1°C° 0 mm 8 mps 740 mmHg 79%
    10:00 0°C° 0 mm 8 mps 740 mmHg 71%
    11:00 +1°C° 0 mm 8 mps 740 mmHg 64%
    12:00 +1°C° 0 mm 8 mps 740 mmHg 63%
    13:00 +1°C° 0 mm 8 mps 740 mmHg 62%
    14:00 +2°C° 0 mm 8 mps 740 mmHg 61%
    15:00 +3°C° 0 mm 7 mps 739 mmHg 64%
    16:00 +2°C° 0 mm 6 mps 739 mmHg 66%
    17:00 +2°C° 0 mm 5 mps 739 mmHg 69%
    18:00 +1°C° 0 mm 5 mps 739 mmHg 71%
    19:00 +1°C° 0 mm 5 mps 740 mmHg 73%
    20:00 +1°C° 0 mm 5 mps 740 mmHg 75%
    21:00 +1°C° 0.3 mm 5 mps 739 mmHg 82%
    22:00 +1°C° 0.3 mm 6 mps 739 mmHg 88%
    23:00 +1°C° 0.3 mm 6 mps 739 mmHg 94%

    Day after tomorrow, 2 March, Monday

    Time Temperature Precipitation Wind Pressure Humidity
    00:00 +1°C° 0.2 mm 6 mps 739 mmHg 94%
    01:00 0°C° 0.2 mm 5 mps 739 mmHg 93%
    02:00 0°C° 0.2 mm 5 mps 739 mmHg 92%
    03:00 0°C° 0.1 mm 5 mps 739 mmHg 91%
    04:00 +1°C° 0.1 mm 5 mps 738 mmHg 90%
    05:00 +1°C° 0.1 mm 5 mps 738 mmHg 90%
    06:00 +1°C° 0.1 mm 4 mps 738 mmHg 91%
    07:00 +1°C° 0.1 mm 4 mps 739 mmHg 93%
    08:00 +1°C° 0.1 mm 4 mps 739 mmHg 94%
    09:00 +3°C° 0 mm 4 mps 739 mmHg 93%
    10:00 +3°C° 0 mm 4 mps 739 mmHg 92%
    11:00 +3°C° 0 mm 4 mps 739 mmHg 90%
    12:00 +4°C° 0 mm 4 mps 739 mmHg 89%
    13:00 +3°C° 0 mm 5 mps 739 mmHg 88%
    14:00 +3°C° 0 mm 5 mps 739 mmHg 87%
    15:00 +3°C° 0.1 mm 5 mps 739 mmHg 88%
    16:00 +2°C° 0.1 mm 5 mps 738 mmHg 89%
    17:00 +2°C° 0.1 mm 6 mps 738 mmHg 90%
    18:00 +2°C° 0.1 mm 6 mps 738 mmHg 91%
    19:00 +2°C° 0.1 mm 6 mps 738 mmHg 91%
    20:00 +2°C° 0.1 mm 6 mps 738 mmHg 92%
    21:00 +2°C° 0.2 mm 6 mps 738 mmHg 93%
    22:00 +1°C° 0.2 mm 6 mps 737 mmHg 93%
    23:00 +1°C° 0.2 mm 6 mps 737 mmHg 94%

    3 March, Tuesday

    Time Temperature Precipitation Wind Pressure Humidity
    00:00 +1°C° 0.9 mm 6 mps 736 mmHg 94%
    01:00 +1°C° 0.9 mm 5 mps 736 mmHg 95%
    02:00 +1°C° 0.9 mm 5 mps 735 mmHg 95%
    03:00 +2°C° 0.6 mm 5 mps 735 mmHg 95%
    04:00 +2°C° 0.6 mm 5 mps 735 mmHg 95%
    05:00 +3°C° 0.6 mm 5 mps 735 mmHg 94%
    06:00 +4°C° 0.4 mm 4 mps 735 mmHg 94%
    07:00 +4°C° 0.4 mm 4 mps 736 mmHg 94%
    08:00 +4°C° 0.4 mm 4 mps 736 mmHg 93%
    09:00 +4°C° 0 mm 4 mps 737 mmHg 90%
    10:00 +5°C° 0 mm 5 mps 738 mmHg 87%
    11:00 +5°C° 0 mm 5 mps 739 mmHg 84%
    12:00 +6°C° 0 mm 5 mps 740 mmHg 79%
    13:00 +6°C° 0 mm 5 mps 741 mmHg 74%
    14:00 +7°C° 0 mm 5 mps 742 mmHg 69%
    15:00 +6°C° 0 mm 4 mps 742 mmHg 72%
    16:00 +7°C° 0 mm 3 mps 742 mmHg 74%
    17:00 +7°C° 0 mm 2 mps 742 mmHg 77%
    18:00 +6°C° 0 mm 2 mps 743 mmHg 79%
    19:00 +5°C° 0 mm 2 mps 743 mmHg 82%
    20:00 +4°C° 0 mm 2 mps 744 mmHg 85%
    21:00 +4°C° 0 mm 2 mps 744 mmHg 85%
    22:00 +4°C° 0 mm 2 mps 744 mmHg 86%
    23:00 +5°C° 0 mm 1 mps 744 mmHg 87%

    4 March, Wednesday

    Time Temperature Precipitation Wind Pressure Humidity
    00:00 +4°C° 0 mm 2 mps 744 mmHg 87%
    01:00 +4°C° 0 mm 2 mps 744 mmHg 88%
    02:00 +4°C° 0 mm 2 mps 744 mmHg 88%
    03:00 +3°C° 0 mm 3 mps 743 mmHg 88%
    04:00 +3°C° 0 mm 3 mps 743 mmHg 88%
    05:00 +3°C° 0 mm 3 mps 743 mmHg 88%
    06:00 +3°C° 0.4 mm 4 mps 742 mmHg 90%
    07:00 +3°C° 0.4 mm 4 mps 742 mmHg 91%
    08:00 +2°C° 0.4 mm 5 mps 742 mmHg 92%
    09:00 +3°C° 0.6 mm 4 mps 741 mmHg 92%
    10:00 +4°C° 0.6 mm 4 mps 741 mmHg 93%
    11:00 +4°C° 0.6 mm 4 mps 741 mmHg 93%
    12:00 +4°C° 0 mm 4 mps 740 mmHg 93%
    13:00 +5°C° 0 mm 4 mps 740 mmHg 93%
    14:00 +5°C° 0 mm 4 mps 740 mmHg 93%
    15:00 +5°C° 0 mm 4 mps 740 mmHg 94%
    16:00 +5°C° 0 mm 4 mps 739 mmHg 95%
    17:00 +5°C° 0 mm 4 mps 739 mmHg 96%
    18:00 +5°C° 0 mm 4 mps 739 mmHg 96%
    19:00 +5°C° 0 mm 3 mps 738 mmHg 95%
    20:00 +7°C° 0 mm 3 mps 738 mmHg 95%
    21:00 +7°C° 0 mm 3 mps 738 mmHg 95%
    22:00 +5°C° 0 mm 3 mps 738 mmHg 95%
    23:00 +5°C° 0 mm 3 mps 737 mmHg 94%

    5 March, Thursday

    Time Temperature Precipitation Wind Pressure Humidity
    00:00 +5°C° 0 mm 3 mps 737 mmHg 94%
    01:00 +5°C° 0 mm 3 mps 736 mmHg 94%
    02:00 +7°C° 0 mm 3 mps 736 mmHg 94%
    03:00 +7°C° 0 mm 3 mps 736 mmHg 94%
    04:00 +6°C° 0 mm 4 mps 735 mmHg 93%
    05:00 +6°C° 0 mm 4 mps 735 mmHg 92%
    06:00 +6°C° 0 mm 4 mps 735 mmHg 90%
    07:00 +6°C° 0 mm 5 mps 734 mmHg 88%
    08:00 +6°C° 0 mm 5 mps 734 mmHg 87%
    09:00 +7°C° 0 mm 6 mps 734 mmHg 83%
    10:00 +8°C° 0 mm 6 mps 734 mmHg 80%
    11:00 +9°C° 0 mm 6 mps 734 mmHg 77%
    12:00 +9°C° 0 mm 6 mps 733 mmHg 76%
    13:00 +10°C° 0 mm 6 mps 733 mmHg 75%
    14:00 +10°C° 0 mm 6 mps 733 mmHg 74%
    15:00 +10°C° 0 mm 6 mps 732 mmHg 75%
    16:00 +10°C° 0 mm 5 mps 732 mmHg 77%
    17:00 +9°C° 0 mm 5 mps 732 mmHg 78%
    18:00 +9°C° 0 mm 5 mps 732 mmHg 80%
    19:00 +8°C° 0 mm 5 mps 732 mmHg 82%
    20:00 +8°C° 0 mm 5 mps 732 mmHg 83%
    21:00 +7°C° 0 mm 6 mps 733 mmHg 85%
    22:00 +5°C° 0 mm 6 mps 733 mmHg 86%
    23:00 +5°C° 0 mm 6 mps 733 mmHg 88%
    Show more